Torna al catalogo

SL-14 DEB

AttivoPO
NORAD 45298·DEBRIS·🇷🇺 Russia

Lanciato Aug 15, 1991 da Plesetsk Cosmodrome

Loading…

Prossimi Passaggi (prossime 24 ore)

TLE

AggiornatoSource: Space-Track

Epoca: Sep 13, 2026, 15:15 UTC

1 45298U 91056AL  26256.63554151  .00000840  00000-0  90539-3 0  9991
2 45298  82.5884 326.9693 0158401 162.7884 197.8727 13.67006363324025

Traccia SL-14 DEB in tempo reale con AllMySat

Download on the App Store